Location: Bratsk-Energetik
(56.3300°N, 101.7600°E)
Time: 22:16:53
(UTC+08:00)

ISS - Pass Details

Date: 25 May 2017
Orbit: 402 x 409 km, 51.6° (Epoch: 25 May)

Event Time Altitude Azimuth Distance (km) Brightness Sun altitude
Rises 00:53:25 0° 251° (WSW) 2,330 -0.1 -12.7°
Reaches altitude 10° 00:55:35 10° 242° (WSW) 1,469 -1.2 -12.7°
Maximum altitude 00:58:37 35° 175° (S) 678 -3.3 -12.7°
Drops below altitude 10° 01:01:40 10° 108° (ESE) 1,466 -1.2 -12.8°
Sets 01:03:50 0° 99° (E) 2,325 -0.1 -12.8°
